This is the latest recevied weather packets stored in our database for station/object W2OBX. If no packets are shown the sender has not sent any weather packets the latest 1 day(s).
| Time | Temp. | Humidity | Pressure | Rain* | Wind** | Luminosity | Snow |
|---|---|---|---|---|---|---|---|
| 1778020122 | 22.78° C | 57% | 1011.7 hPa | 0 mm | 0 m/s | 36 W/m² | - |
| 1778019818 | 22.78° C | 57% | 1011.8 hPa | 0 mm | 0 m/s | 36 W/m² | - |
| 1778019515 | 22.78° C | 54% | 1012.1 hPa | 0 mm | 0 m/s | 35 W/m² | - |
| 1778019212 | 22.78° C | 55% | 1011.8 hPa | 0 mm | 0 m/s | 37 W/m² | - |
| 1778018909 | 23.33° C | 54% | 1011.8 hPa | 0 mm | 0 m/s | 40 W/m² | - |
| 1778018606 | 23.33° C | 53% | 1011.9 hPa | 0 mm | 0 m/s | 43 W/m² | - |
| 1778018304 | 23.33° C | 54% | 1012 hPa | 0 mm | 0 m/s | 54 W/m² | - |
| 1778018002 | 23.33° C | 54% | 1012 hPa | 0 mm | 0 m/s | 40 W/m² | - |
| 1778017700 | 23.33° C | 51% | 1011.9 hPa | 0 mm | 0 m/s | 47 W/m² | - |
| 1778017397 | 23.33° C | 50% | 1012 hPa | 0 mm | 0 m/s | 53 W/m² | - |
| 1778017094 | 23.89° C | 50% | 1012.1 hPa | 0 mm | 0 m/s | 50 W/m² | - |
| 1778016792 | 23.89° C | 48% | 1011.9 hPa | 0 mm | 0 m/s | 42 W/m² | - |
| 1778016487 | 23.89° C | 48% | 1011.9 hPa | 0 mm | 0 m/s | 57 W/m² | - |
| 1778016185 | 23.89° C | 48% | 1012 hPa | 0 mm | 0.45 m/s, 110° | 63 W/m² | - |
| 1778015881 | 23.89° C | 50% | 1012 hPa | 0 mm | 0 m/s | 66 W/m² | - |
| 1778015579 | 23.89° C | 50% | 1011.9 hPa | 0 mm | 0 m/s | 72 W/m² | - |
| 1778015275 | 23.89° C | 51% | 1012 hPa | 0 mm | 0 m/s | 75 W/m² | - |
| 1778014972 | 23.89° C | 50% | 1012.3 hPa | 0 mm | 0 m/s | 69 W/m² | - |
| 1778014669 | 23.89° C | 49% | 1012.1 hPa | 0 mm | 0.45 m/s, 110° | 219 W/m² | - |
| 1778014367 | 23.89° C | 47% | 1012.2 hPa | 0 mm | 0 m/s | 95 W/m² | - |
| 1778014063 | 23.89° C | 48% | 1012.2 hPa | 0 mm | 0 m/s | 81 W/m² | - |
| 1778013762 | 23.89° C | 48% | 1012.4 hPa | 0 mm | 0.45 m/s, 110° | 103 W/m² | - |
| 1778013458 | 23.89° C | 46% | 1012.3 hPa | 0 mm | 0 m/s | 82 W/m² | - |
| 1778013155 | 23.89° C | 46% | 1012.3 hPa | 0 mm | 0.45 m/s, 109° | 88 W/m² | - |
| 1778012851 | 23.89° C | 48% | 1012.5 hPa | 0 mm | 0.45 m/s, 109° | 90 W/m² | - |
* Rain latest hour (hover to see other rain measurements)
** Current wind speed in m/s (hover to see current wind gust speed)